Weather History for Imperial, NE

Change the Weather History Date:

Sunday, July 22, 2012

  Actual Average Record
Temperature  
Mean Temperature 84 °F 77 °F  
Max Temperature 106 °F 92 °F 106 °F (1937)
Min Temperature 62 °F 63 °F 48 °F (1990)
Degree Days  
Heating Degree Days 0 0  
Month to date heating degree days 0 0  
Since 1 June heating degree days 2 34  
Cooling Degree Days 19 12  
Month to date cooling degree days 346 248  
Year to date cooling degree days 795 476  
Since 1 June cooling degree days 718 432  
Growing Degree Days 34 (Base 50)    
Moisture  
Dew Point 48 °F    
Average Humidity 42    
Maximum Humidity 72    
Minimum Humidity 12    
Precipitation  
Precipitation 0.00 in 0.09 in 1.25 in (1895)
Sea Level Pressure  
Sea Level Pressure 29.93 in    
Wind  
Wind Speed 10 mph (SSW)    
Max Wind Speed 23 mph    
Max Gust Speed 31 mph    
Visibility 10 miles    
Events      
T = Trace of Precipitation, MM = Missing Value Source: NWS Daily Summary

Daily Weather History Graph

Daily Weather History Graph

Search for Another Location

Airport:

Trip Planner

Search our weather history database for the weather conditions in past years. The results will help you decide how hot, cold, wet, or windy it might be!

Date:

Astronomy

Jul. 22, 2012 Rise Set
Actual Time 5:35 AM MDT 8:10 PM MDT
Civil Twilight 5:03 AM MDT 8:41 PM MDT
Nautical Twilight 4:24 AM MDT 9:21 PM MDT
Astronomical Twilight 3:39 AM MDT 10:05 PM MDT
Moon 9:23 AM MDT (7/22) 9:53 PM MDT (7/22)
Length of Visible Light 15h 38m
Length of Day
14h 35m
Waxing Crescent, 14% of the Moon is Illuminated
Jul 22
Waxing Crescent
Jul 26
First Quarter
Aug 1
Full
Aug 9
Last Quarter
Aug 17
New

Hourly Weather History & Observations

Time (MDT) Temp. Dew Point Humidity Pressure Visibility Wind Dir Wind Speed Gust Speed Precip Events Conditions
12:53 AM 81.0 °F 48.0 °F 31% 29.91 in 10.0 mi SSW 11.5 mph - N/A   Clear
1:53 AM 75.0 °F 51.1 °F 43% 29.94 in 10.0 mi NNW 5.8 mph - N/A   Clear
2:53 AM 73.0 °F 51.1 °F 46% 29.95 in 10.0 mi NW 3.5 mph - N/A   Clear
3:53 AM 68.0 °F 53.1 °F 59% 29.97 in 10.0 mi Calm Calm - N/A   Clear
4:53 AM 64.9 °F 53.1 °F 65% 29.98 in 10.0 mi Calm Calm - N/A   Clear
5:53 AM 63.0 °F 53.1 °F 70% 29.99 in 10.0 mi Calm Calm - N/A   Clear
6:53 AM 72.0 °F 54.0 °F 53% 29.98 in 10.0 mi Calm Calm - N/A   Clear
7:53 AM 84.9 °F 45.0 °F 25% 29.97 in 10.0 mi SSW 8.1 mph - N/A   Clear
8:53 AM 89.6 °F 44.6 °F 21% 30.10 in 10.0 mi SW 10.4 mph - N/A   Clear
9:53 AM 93.0 °F 46.9 °F 20% 29.96 in 10.0 mi SW 11.5 mph - N/A   Clear
10:53 AM 95.0 °F 48.9 °F 21% 29.96 in 10.0 mi SSW 11.5 mph - N/A   Clear
11:53 AM 98.1 °F 48.9 °F 19% 29.95 in 10.0 mi SW 10.4 mph 17.3 mph N/A   Clear
12:53 PM 100.9 °F 48.0 °F 17% 29.93 in 10.0 mi South 12.7 mph 17.3 mph N/A   Clear
1:53 PM 102.9 °F 46.0 °F 15% 29.91 in 10.0 mi South 11.5 mph 19.6 mph N/A   Clear
2:53 PM 106.0 °F 43.0 °F 12% 29.89 in 10.0 mi SSW 12.7 mph 24.2 mph N/A   Clear
3:53 PM 105.1 °F 45.0 °F 13% 29.88 in 10.0 mi South 11.5 mph 25.3 mph N/A   Clear
4:53 PM 104.0 °F 44.1 °F 13% 29.88 in 10.0 mi South 18.4 mph 29.9 mph N/A   Clear
5:53 PM 102.0 °F 44.1 °F 14% 29.88 in 10.0 mi South 21.9 mph 31.1 mph N/A   Clear
6:53 PM 99.0 °F 46.0 °F 16% 29.87 in 10.0 mi South 17.3 mph 27.6 mph N/A   Clear
7:53 PM 93.0 °F 46.0 °F 20% 29.87 in 10.0 mi South 16.1 mph - N/A   Clear
8:53 PM 89.1 °F 46.9 °F 23% 29.90 in 10.0 mi South 13.8 mph - N/A   Clear
9:53 PM 86.0 °F 48.0 °F 27% 29.91 in 10.0 mi South 12.7 mph - N/A   Clear
10:53 PM 82.9 °F 48.0 °F 29% 29.92 in 10.0 mi South 9.2 mph - N/A   Clear